owner,sensor,date,latitude,longitude,vertical_datum,direction_of_sea_water_velocity,sea_water_speed,upward_sea_water_velocity,qcFlag 
TABS,ioos:station:wmo:42043:1,2000-04-01T00:00:00Z,28.9818,-94.9186,2.0,237.9942707,42.16989566,-99999.0,'11111222,11111222,99999999' 
TABS,ioos:station:wmo:42043:1,2000-04-01T00:30:00Z,28.9818,-94.9186,2.0,236.609759,47.11688126,-99999.0,'11111222,11111222,99999999' 
TABS,ioos:station:wmo:42043:1,2000-04-01T01:00:00Z,28.9818,-94.9186,2.0,238.7150843,45.33121662,-99999.0,'11111222,11111222,99999999' 
TABS,ioos:station:wmo:42043:1,2000-04-01T01:30:00Z,28.9818,-94.9186,2.0,238.9386661,42.44596094,-99999.0,'11111222,11111222,99999999' 
TABS,ioos:station:wmo:42043:1,2000-04-01T02:00:00Z,28.9818,-94.9186,2.0,238.4266298,43.54595274,-99999.0,'11111222,11111222,99999999' 
TABS,ioos:station:wmo:42043:1,2000-04-01T02:30:00Z,28.9818,-94.9186,2.0,236.0324902,41.8637134,-99999.0,'11111222,11111222,99999999' 
TABS,ioos:station:wmo:42043:1,2000-04-01T03:00:00Z,28.9818,-94.9186,2.0,236.3636392,41.16154638,-99999.0,'11111222,11111222,99999999' 
TABS,ioos:station:wmo:42043:1,2000-04-01T03:30:00Z,28.9818,-94.9186,2.0,239.9255433,42.52477043,-99999.0,'11111222,11111222,99999999' 
TABS,ioos:station:wmo:42043:1,2000-04-01T04:00:00Z,28.9818,-94.9186,2.0,236.6459779,34.95780886,-99999.0,'11111222,11111222,99999999' 
TABS,ioos:station:wmo:42043:1,2000-04-01T04:30:00Z,28.9818,-94.9186,2.0,237.1535069,33.51862169,-99999.0,'11111222,11111222,99999999' 
TABS,ioos:station:wmo:42043:1,2000-04-01T05:00:00Z,28.9818,-94.9186,2.0,236.8355075,35.95718148,-99999.0,'11111222,11111222,99999999' 
TABS,ioos:station:wmo:42043:1,2000-04-01T05:30:00Z,28.9818,-94.9186,2.0,227.821833,34.1805705,-99999.0,'11111222,11111222,99999999' 
TABS,ioos:station:wmo:42043:1,2000-04-01T06:00:00Z,28.9818,-94.9186,2.0,237.8689007,41.17677622,-99999.0,'11111222,11111222,99999999' 
TABS,ioos:station:wmo:42043:1,2000-04-01T06:30:00Z,28.9818,-94.9186,2.0,232.9125396,39.03628056,-99999.0,'11111222,11111222,99999999' 
TABS,ioos:station:wmo:42043:1,2000-04-01T07:00:00Z,28.9818,-94.9186,2.0,239.2075754,34.34103085,-99999.0,'11111222,11111222,99999999' 
TABS,ioos:station:wmo:42043:1,2000-04-01T07:30:00Z,28.9818,-94.9186,2.0,236.3095903,47.80960991,-99999.0,'11111222,11111222,99999999' 
TABS,ioos:station:wmo:42043:1,2000-04-01T08:00:00Z,28.9818,-94.9186,2.0,229.9133992,50.4394538,-99999.0,'11111222,11111222,99999999' 
TABS,ioos:station:wmo:42043:1,2000-04-01T08:30:00Z,28.9818,-94.9186,2.0,226.5114811,43.95491554,-99999.0,'11111222,11111222,99999999' 
TABS,ioos:station:wmo:42043:1,2000-04-01T09:00:00Z,28.9818,-94.9186,2.0,223.6736742,45.52865581,-99999.0,'11111222,11111222,99999999' 
TABS,ioos:station:wmo:42043:1,2000-04-01T09:30:00Z,28.9818,-94.9186,2.0,220.7812489,45.8528178,-99999.0,'11111222,11111222,99999999' 
TABS,ioos:station:wmo:42043:1,2000-04-01T10:00:00Z,28.9818,-94.9186,2.0,227.5233069,45.44740367,-99999.0,'11111222,11111222,99999999' 
TABS,ioos:station:wmo:42043:1,2000-04-01T10:30:00Z,28.9818,-94.9186,2.0,235.7608333,43.43779115,-99999.0,'11111222,11111222,99999999' 
TABS,ioos:station:wmo:42043:1,2000-04-01T11:00:00Z,28.9818,-94.9186,2.0,232.6453743,38.79738651,-99999.0,'11111222,11111222,99999999' 
TABS,ioos:station:wmo:42043:1,2000-04-01T11:30:00Z,28.9818,-94.9186,2.0,241.2458955,41.80471983,-99999.0,'11111222,11111222,99999999' 
TABS,ioos:station:wmo:42043:1,2000-04-01T12:00:00Z,28.9818,-94.9186,2.0,251.1877338,35.57006888,-99999.0,'11111222,11111222,99999999' 
TABS,ioos:station:wmo:42043:1,2000-04-01T12:30:00Z,28.9818,-94.9186,2.0,245.7180452,30.08111201,-99999.0,'11111222,11111222,99999999' 
TABS,ioos:station:wmo:42043:1,2000-04-01T13:00:00Z,28.9818,-94.9186,2.0,240.0559521,27.16625112,-99999.0,'11111222,11111222,99999999' 
TABS,ioos:station:wmo:42043:1,2000-04-01T13:30:00Z,28.9818,-94.9186,2.0,235.139946,38.31557908,-99999.0,'11111222,11111222,99999999' 
TABS,ioos:station:wmo:42043:1,2000-04-01T14:00:00Z,28.9818,-94.9186,2.0,242.516447,37.11902208,-99999.0,'11111222,11111222,99999999' 
TABS,ioos:station:wmo:42043:1,2000-04-01T14:30:00Z,28.9818,-94.9186,2.0,238.1319393,45.43906029,-99999.0,'11111222,11111222,99999999' 
TABS,ioos:station:wmo:42043:1,2000-04-01T15:00:00Z,28.9818,-94.9186,2.0,240.7230019,38.09606016,-99999.0,'11111222,11111222,99999999' 
TABS,ioos:station:wmo:42043:1,2000-04-01T15:30:00Z,28.9818,-94.9186,2.0,245.7032941,36.94196665,-99999.0,'11111222,11111222,99999999' 
TABS,ioos:station:wmo:42043:1,2000-04-01T16:00:00Z,28.9818,-94.9186,2.0,242.1084353,34.39546627,-99999.0,'11111222,11111222,99999999' 
TABS,ioos:station:wmo:42043:1,2000-04-01T16:30:00Z,28.9818,-94.9186,2.0,241.4553985,29.0056891,-99999.0,'11111222,11111222,99999999' 
TABS,ioos:station:wmo:42043:1,2000-04-01T17:00:00Z,28.9818,-94.9186,2.0,243.178847,29.05575674,-99999.0,'11111222,11111222,99999999' 
TABS,ioos:station:wmo:42043:1,2000-04-01T17:30:00Z,28.9818,-94.9186,2.0,234.4917749,31.30084344,-99999.0,'11111222,11111222,99999999' 
TABS,ioos:station:wmo:42043:1,2000-04-01T18:00:00Z,28.9818,-94.9186,2.0,231.2338912,26.176329,-99999.0,'11111222,11111222,99999999' 
TABS,ioos:station:wmo:42043:1,2000-04-01T18:30:00Z,28.9818,-94.9186,2.0,246.8984622,23.1677405,-99999.0,'11111222,11111222,99999999' 
TABS,ioos:station:wmo:42043:1,2000-04-01T19:00:00Z,28.9818,-94.9186,2.0,245.4941717,31.60711471,-99999.0,'11111222,11111222,99999999' 
TABS,ioos:station:wmo:42043:1,2000-04-01T19:30:00Z,28.9818,-94.9186,2.0,242.7037967,30.8557758,-99999.0,'11111222,11111222,99999999' 
TABS,ioos:station:wmo:42043:1,2000-04-01T20:00:00Z,28.9818,-94.9186,2.0,243.6709037,47.70915216,-99999.0,'11111222,11111222,99999999' 
TABS,ioos:station:wmo:42043:1,2000-04-01T20:30:00Z,28.9818,-94.9186,2.0,239.5075458,43.75077142,-99999.0,'11111222,11111222,99999999' 
TABS,ioos:station:wmo:42043:1,2000-04-01T21:00:00Z,28.9818,-94.9186,2.0,234.3564172,48.58113317,-99999.0,'11111222,11111222,99999999' 
TABS,ioos:station:wmo:42043:1,2000-04-01T21:30:00Z,28.9818,-94.9186,2.0,229.8549401,47.36935402,-99999.0,'11111222,11111222,99999999' 
TABS,ioos:station:wmo:42043:1,2000-04-01T22:00:00Z,28.9818,-94.9186,2.0,227.1460311,45.12385733,-99999.0,'11111222,11111222,99999999' 
TABS,ioos:station:wmo:42043:1,2000-04-01T22:30:00Z,28.9818,-94.9186,2.0,227.2511418,43.01822986,-99999.0,'11111222,11111222,99999999' 
TABS,ioos:station:wmo:42043:1,2000-04-01T23:00:00Z,28.9818,-94.9186,2.0,232.8041228,68.26710262,-99999.0,'11111222,11111222,99999999' 
TABS,ioos:station:wmo:42043:1,2000-04-01T23:30:00Z,28.9818,-94.9186,2.0,230.7005998,62.57022695,-99999.0,'11111222,11111222,99999999' 
TABS,ioos:station:wmo:42043:1,2000-04-02T00:00:00Z,28.9818,-94.9186,2.0,226.6518601,62.29372039,-99999.0,'11111222,11111222,99999999' 
TABS,ioos:station:wmo:42043:1,2000-04-02T00:30:00Z,28.9818,-94.9186,2.0,224.8914569,56.15144967,-99999.0,'11111222,11111222,99999999' 
TABS,ioos:station:wmo:42043:1,2000-04-02T01:00:00Z,28.9818,-94.9186,2.0,224.9996843,53.93810527,-99999.0,'11111222,11111222,99999999' 
TABS,ioos:station:wmo:42043:1,2000-04-02T01:30:00Z,28.9818,-94.9186,2.0,227.2896423,50.08194186,-99999.0,'11111222,11111222,99999999' 
TABS,ioos:station:wmo:42043:1,2000-04-02T02:00:00Z,28.9818,-94.9186,2.0,225.7309385,49.31057189,-99999.0,'11111222,11111222,99999999' 
TABS,ioos:station:wmo:42043:1,2000-04-02T02:30:00Z,28.9818,-94.9186,2.0,229.0882554,48.69509318,-99999.0,'11111222,11111222,99999999' 
TABS,ioos:station:wmo:42043:1,2000-04-02T03:00:00Z,28.9818,-94.9186,2.0,231.7576179,44.76683706,-99999.0,'11111222,11111222,99999999' 
TABS,ioos:station:wmo:42043:1,2000-04-02T03:30:00Z,28.9818,-94.9186,2.0,234.5142108,40.80991301,-99999.0,'11111222,11111222,99999999' 
TABS,ioos:station:wmo:42043:1,2000-04-02T04:00:00Z,28.9818,-94.9186,2.0,235.9228495,36.15895601,-99999.0,'11111222,11111222,99999999' 
TABS,ioos:station:wmo:42043:1,2000-04-02T04:30:00Z,28.9818,-94.9186,2.0,238.8243063,34.82988516,-99999.0,'11111222,11111222,99999999' 
TABS,ioos:station:wmo:42043:1,2000-04-02T05:00:00Z,28.9818,-94.9186,2.0,239.9612471,36.31784685,-99999.0,'11111222,11111222,99999999' 
TABS,ioos:station:wmo:42043:1,2000-04-02T05:30:00Z,28.9818,-94.9186,2.0,235.7044206,38.60096631,-99999.0,'11111222,11111222,99999999' 
TABS,ioos:station:wmo:42043:1,2000-04-02T06:00:00Z,28.9818,-94.9186,2.0,240.6494674,37.09098678,-99999.0,'11111222,11111222,99999999' 
TABS,ioos:station:wmo:42043:1,2000-04-02T06:30:00Z,28.9818,-94.9186,2.0,238.9386911,32.34810968,-99999.0,'11111222,11111222,99999999' 
TABS,ioos:station:wmo:42043:1,2000-04-02T07:00:00Z,28.9818,-94.9186,2.0,235.1597123,37.03924405,-99999.0,'11111222,11111222,99999999' 
TABS,ioos:station:wmo:42043:1,2000-04-02T07:30:00Z,28.9818,-94.9186,2.0,237.2719418,36.65975996,-99999.0,'11111222,11111222,99999999' 
TABS,ioos:station:wmo:42043:1,2000-04-02T08:00:00Z,28.9818,-94.9186,2.0,240.9034808,36.15224059,-99999.0,'11111222,11111222,99999999' 
TABS,ioos:station:wmo:42043:1,2000-04-02T08:30:00Z,28.9818,-94.9186,2.0,238.0420281,36.87945905,-99999.0,'11111222,11111222,99999999' 
TABS,ioos:station:wmo:42043:1,2000-04-02T09:00:00Z,28.9818,-94.9186,2.0,233.8937023,40.20157335,-99999.0,'11111222,11111222,99999999' 
TABS,ioos:station:wmo:42043:1,2000-04-02T09:30:00Z,28.9818,-94.9186,2.0,229.1761321,41.94381957,-99999.0,'11111222,11111222,99999999' 
TABS,ioos:station:wmo:42043:1,2000-04-02T10:00:00Z,28.9818,-94.9186,2.0,229.5885616,35.61800809,-99999.0,'11111222,11111222,99999999' 
TABS,ioos:station:wmo:42043:1,2000-04-02T10:30:00Z,28.9818,-94.9186,2.0,232.0445218,39.4930842,-99999.0,'11111222,11111222,99999999' 
TABS,ioos:station:wmo:42043:1,2000-04-02T11:00:00Z,28.9818,-94.9186,2.0,233.930922,42.76818093,-99999.0,'11111222,11111222,99999999' 
TABS,ioos:station:wmo:42043:1,2000-04-02T11:30:00Z,28.9818,-94.9186,2.0,240.1757018,42.24503048,-99999.0,'11111222,11111222,99999999' 
TABS,ioos:station:wmo:42043:1,2000-04-02T12:00:00Z,28.9818,-94.9186,2.0,239.2382728,43.69811209,-99999.0,'11111222,11111222,99999999' 
TABS,ioos:station:wmo:42043:1,2000-04-02T12:30:00Z,28.9818,-94.9186,2.0,235.1602829,41.20587337,-99999.0,'11111222,11111222,99999999' 
TABS,ioos:station:wmo:42043:1,2000-04-02T13:00:00Z,28.9818,-94.9186,2.0,230.9051156,39.93009517,-99999.0,'11111222,11111222,99999999' 
TABS,ioos:station:wmo:42043:1,2000-04-02T13:30:00Z,28.9818,-94.9186,2.0,225.1631056,37.18689689,-99999.0,'11111222,11111222,99999999' 
TABS,ioos:station:wmo:42043:1,2000-04-02T14:00:00Z,28.9818,-94.9186,2.0,219.1451151,36.11647962,-99999.0,'11111222,11111222,99999999' 
TABS,ioos:station:wmo:42043:1,2000-04-02T14:30:00Z,28.9818,-94.9186,2.0,227.6638686,31.64187415,-99999.0,'11111222,11111222,99999999' 
TABS,ioos:station:wmo:42043:1,2000-04-02T15:00:00Z,28.9818,-94.9186,2.0,234.0301158,34.23822717,-99999.0,'11111222,11111222,99999999' 
TABS,ioos:station:wmo:42043:1,2000-04-02T15:30:00Z,28.9818,-94.9186,2.0,229.2058588,28.72934736,-99999.0,'11111222,11111222,99999999' 
TABS,ioos:station:wmo:42043:1,2000-04-02T16:00:00Z,28.9818,-94.9186,2.0,206.8454081,27.39216129,-99999.0,'11111222,11111222,99999999' 
TABS,ioos:station:wmo:42043:1,2000-04-02T16:30:00Z,28.9818,-94.9186,2.0,221.7090047,25.74578218,-99999.0,'11111222,11111222,99999999' 
TABS,ioos:station:wmo:42043:1,2000-04-02T17:00:00Z,28.9818,-94.9186,2.0,213.8512915,30.50031147,-99999.0,'11111222,11111222,99999999' 
TABS,ioos:station:wmo:42043:1,2000-04-02T17:30:00Z,28.9818,-94.9186,2.0,226.9375807,24.88317705,-99999.0,'11111222,11111222,99999999' 
TABS,ioos:station:wmo:42043:1,2000-04-02T18:00:00Z,28.9818,-94.9186,2.0,223.1566051,23.08483701,-99999.0,'11111222,11111222,99999999' 
TABS,ioos:station:wmo:42043:1,2000-04-02T18:30:00Z,28.9818,-94.9186,2.0,224.9996843,22.54256418,-99999.0,'11111222,11111222,99999999' 
TABS,ioos:station:wmo:42043:1,2000-04-02T19:00:00Z,28.9818,-94.9186,2.0,218.6465716,27.6693061,-99999.0,'11111222,11111222,99999999' 
TABS,ioos:station:wmo:42043:1,2000-04-02T19:30:00Z,28.9818,-94.9186,2.0,215.3760198,23.94013367,-99999.0,'11111222,11111222,99999999' 
TABS,ioos:station:wmo:42043:1,2000-04-02T20:00:00Z,28.9818,-94.9186,2.0,222.3595667,20.57035731,-99999.0,'11111222,11111222,99999999' 
TABS,ioos:station:wmo:42043:1,2000-04-02T20:30:00Z,28.9818,-94.9186,2.0,220.8647851,20.49580689,-99999.0,'11111222,11111222,99999999' 
TABS,ioos:station:wmo:42043:1,2000-04-02T21:00:00Z,28.9818,-94.9186,2.0,216.4423227,23.3326488,-99999.0,'11111222,11111222,99999999' 
TABS,ioos:station:wmo:42043:1,2000-04-02T21:30:00Z,28.9818,-94.9186,2.0,218.1569269,26.52869578,-99999.0,'11111222,11111222,99999999' 
TABS,ioos:station:wmo:42043:1,2000-04-02T22:00:00Z,28.9818,-94.9186,2.0,210.4041197,20.90495874,-99999.0,'11111222,11111222,99999999' 
TABS,ioos:station:wmo:42043:1,2000-04-02T22:30:00Z,28.9818,-94.9186,2.0,207.7316479,23.05864263,-99999.0,'11111222,11111222,99999999' 
TABS,ioos:station:wmo:42043:1,2000-04-02T23:00:00Z,28.9818,-94.9186,2.0,205.901792,23.1895774,-99999.0,'11111222,11111222,99999999' 
TABS,ioos:station:wmo:42043:1,2000-04-02T23:30:00Z,28.9818,-94.9186,2.0,214.0340645,27.69390727,-99999.0,'11111222,11111222,99999999' 
TABS,ioos:station:wmo:42043:1,2000-04-03T00:00:00Z,28.9818,-94.9186,2.0,217.1551251,30.10037375,-99999.0,'11111222,11111222,99999999' 
TABS,ioos:station:wmo:42043:1,2000-04-03T00:30:00Z,28.9818,-94.9186,2.0,216.2957072,29.95150247,-99999.0,'11111222,11111222,99999999' 
TABS,ioos:station:wmo:42043:1,2000-04-03T01:00:00Z,28.9818,-94.9186,2.0,222.4479798,26.04735687,-99999.0,'11111222,11111222,99999999' 
TABS,ioos:station:wmo:42043:1,2000-04-03T01:30:00Z,28.9818,-94.9186,2.0,228.0761061,25.42885172,-99999.0,'11111222,11111222,99999999' 
TABS,ioos:station:wmo:42043:1,2000-04-03T02:00:00Z,28.9818,-94.9186,2.0,232.8828052,26.91225,-99999.0,'11111222,11111222,99999999' 
TABS,ioos:station:wmo:42043:1,2000-04-03T02:30:00Z,28.9818,-94.9186,2.0,233.9103009,23.78420694,-99999.0,'11111222,11111222,99999999' 
TABS,ioos:station:wmo:42043:1,2000-04-03T03:00:00Z,28.9818,-94.9186,2.0,242.4255734,22.85615891,-99999.0,'11111222,11111222,99999999' 
TABS,ioos:station:wmo:42043:1,2000-04-03T03:30:00Z,28.9818,-94.9186,2.0,245.0538588,25.79663738,-99999.0,'11111222,11111222,99999999' 
TABS,ioos:station:wmo:42043:1,2000-04-03T04:00:00Z,28.9818,-94.9186,2.0,250.8753205,23.65554903,-99999.0,'11111222,11111222,99999999' 
TABS,ioos:station:wmo:42043:1,2000-04-03T04:30:00Z,28.9818,-94.9186,2.0,261.6873689,19.57564303,-99999.0,'11111222,11111222,99999999' 
TABS,ioos:station:wmo:42043:1,2000-04-03T05:00:00Z,28.9818,-94.9186,2.0,270.0004209,18.63,-99999.0,'11111222,11111222,99999999' 
TABS,ioos:station:wmo:42043:1,2000-04-03T05:30:00Z,28.9818,-94.9186,2.0,270.0004209,17.73,-99999.0,'11111222,11111222,99999999' 
TABS,ioos:station:wmo:42043:1,2000-04-03T06:00:00Z,28.9818,-94.9186,2.0,267.8640001,16.10118319,-99999.0,'11111222,11111222,99999999' 
TABS,ioos:station:wmo:42043:1,2000-04-03T06:30:00Z,28.9818,-94.9186,2.0,271.6961783,15.20665973,-99999.0,'11111222,11111222,99999999' 
TABS,ioos:station:wmo:42043:1,2000-04-03T07:00:00Z,28.9818,-94.9186,2.0,275.4953803,12.42710747,-99999.0,'11111222,11111222,99999999' 
TABS,ioos:station:wmo:42043:1,2000-04-03T07:30:00Z,28.9818,-94.9186,2.0,277.2960084,12.91455381,-99999.0,'11111222,11111222,99999999' 
TABS,ioos:station:wmo:42043:1,2000-04-03T08:00:00Z,28.9818,-94.9186,2.0,281.8282769,10.1964945,-99999.0,'11111222,11111222,99999999' 
TABS,ioos:station:wmo:42043:1,2000-04-03T08:30:00Z,28.9818,-94.9186,2.0,284.3200956,7.843698107,-99999.0,'11133222,11111222,99999999' 
TABS,ioos:station:wmo:42043:1,2000-04-03T09:00:00Z,28.9818,-94.9186,2.0,259.3109026,5.607289898,-99999.0,'11133222,11111222,99999999' 
TABS,ioos:station:wmo:42043:1,2000-04-03T09:30:00Z,28.9818,-94.9186,2.0,185.7103693,14.97431468,-99999.0,'11111222,11111222,99999999' 
TABS,ioos:station:wmo:42043:1,2000-04-03T10:00:00Z,28.9818,-94.9186,2.0,205.6217256,28.25878271,-99999.0,'11111222,11111222,99999999' 
TABS,ioos:station:wmo:42043:1,2000-04-03T10:30:00Z,28.9818,-94.9186,2.0,218.6135567,36.99913783,-99999.0,'11111222,11111222,99999999' 
TABS,ioos:station:wmo:42043:1,2000-04-03T11:00:00Z,28.9818,-94.9186,2.0,216.6125585,45.4724576,-99999.0,'11111222,11111222,99999999' 
TABS,ioos:station:wmo:42043:1,2000-04-03T11:30:00Z,28.9818,-94.9186,2.0,216.6760497,53.87630741,-99999.0,'11111222,11111222,99999999' 
TABS,ioos:station:wmo:42043:1,2000-04-03T12:00:00Z,28.9818,-94.9186,2.0,217.5436363,55.2538234,-99999.0,'11111222,11111222,99999999' 
TABS,ioos:station:wmo:42043:1,2000-04-03T12:30:00Z,28.9818,-94.9186,2.0,218.6832657,56.49430148,-99999.0,'11111222,11111222,99999999' 
TABS,ioos:station:wmo:42043:1,2000-04-03T13:00:00Z,28.9818,-94.9186,2.0,218.4282399,56.10275751,-99999.0,'11111222,11111222,99999999' 
TABS,ioos:station:wmo:42043:1,2000-04-03T13:30:00Z,28.9818,-94.9186,2.0,221.3833943,65.13401953,-99999.0,'11111222,11111222,99999999' 
TABS,ioos:station:wmo:42043:1,2000-04-03T14:00:00Z,28.9818,-94.9186,2.0,224.24189,79.66254641,-99999.0,'11111222,11111222,99999999' 
TABS,ioos:station:wmo:42043:1,2000-04-03T14:30:00Z,28.9818,-94.9186,2.0,226.7310294,73.25434936,-99999.0,'11111222,11111222,99999999' 
TABS,ioos:station:wmo:42043:1,2000-04-03T15:00:00Z,28.9818,-94.9186,2.0,228.2503871,70.70423538,-99999.0,'11111222,11111222,99999999' 
TABS,ioos:station:wmo:42043:1,2000-04-03T15:30:00Z,28.9818,-94.9186,2.0,227.9794766,71.00467168,-99999.0,'11111222,11111222,99999999' 
TABS,ioos:station:wmo:42043:1,2000-04-03T16:00:00Z,28.9818,-94.9186,2.0,229.7948145,63.01872182,-99999.0,'11111222,11111222,99999999' 
TABS,ioos:station:wmo:42043:1,2000-04-03T16:30:00Z,28.9818,-94.9186,2.0,229.2009012,60.4219993,-99999.0,'11111222,11111222,99999999' 
TABS,ioos:station:wmo:42043:1,2000-04-03T17:00:00Z,28.9818,-94.9186,2.0,226.0644303,56.69854055,-99999.0,'11111222,11111222,99999999' 
TABS,ioos:station:wmo:42043:1,2000-04-03T17:30:00Z,28.9818,-94.9186,2.0,224.9996843,60.25963989,-99999.0,'11111222,11111222,99999999' 
TABS,ioos:station:wmo:42043:1,2000-04-03T18:00:00Z,28.9818,-94.9186,2.0,226.3784385,61.12586523,-99999.0,'11111222,11111222,99999999' 
TABS,ioos:station:wmo:42043:1,2000-04-03T18:30:00Z,28.9818,-94.9186,2.0,226.5813659,53.54131209,-99999.0,'11111222,11111222,99999999' 
TABS,ioos:station:wmo:42043:1,2000-04-03T19:00:00Z,28.9818,-94.9186,2.0,223.5827054,46.89552004,-99999.0,'11111222,11111222,99999999' 
TABS,ioos:station:wmo:42043:1,2000-04-03T19:30:00Z,28.9818,-94.9186,2.0,221.0365396,42.66277652,-99999.0,'11111222,11111222,99999999' 
TABS,ioos:station:wmo:42043:1,2000-04-03T20:00:00Z,28.9818,-94.9186,2.0,225.6742487,36.03665911,-99999.0,'11111222,11111222,99999999' 
TABS,ioos:station:wmo:42043:1,2000-04-03T20:30:00Z,28.9818,-94.9186,2.0,222.3532359,31.85377843,-99999.0,'11111222,11111222,99999999' 
TABS,ioos:station:wmo:42043:1,2000-04-03T21:00:00Z,28.9818,-94.9186,2.0,221.2140715,30.3090894,-99999.0,'11111222,11111222,99999999' 
TABS,ioos:station:wmo:42043:1,2000-04-03T21:30:00Z,28.9818,-94.9186,2.0,217.7349627,31.64960979,-99999.0,'11111222,11111222,99999999' 
TABS,ioos:station:wmo:42043:1,2000-04-03T22:00:00Z,28.9818,-94.9186,2.0,210.3973458,35.92899247,-99999.0,'11111222,11111222,99999999' 
TABS,ioos:station:wmo:42043:1,2000-04-03T22:30:00Z,28.9818,-94.9186,2.0,212.0735457,38.15359092,-99999.0,'11111222,11111222,99999999' 
TABS,ioos:station:wmo:42043:1,2000-04-03T23:00:00Z,28.9818,-94.9186,2.0,209.7994262,40.18355136,-99999.0,'11111222,11111222,99999999' 
TABS,ioos:station:wmo:42043:1,2000-04-03T23:30:00Z,28.9818,-94.9186,2.0,208.6433311,44.14219297,-99999.0,'11111222,11111222,99999999' 
TABS,ioos:station:wmo:42043:1,2000-04-04T00:00:00Z,28.9818,-94.9186,2.0,208.0973206,49.66294595,-99999.0,'11111222,11111222,99999999' 
TABS,ioos:station:wmo:42043:1,2000-04-04T00:30:00Z,28.9818,-94.9186,2.0,207.8227895,54.5911055,-99999.0,'11111222,11111222,99999999' 
TABS,ioos:station:wmo:42043:1,2000-04-04T01:00:00Z,28.9818,-94.9186,2.0,206.1776517,49.64184223,-99999.0,'11111222,11111222,99999999' 
TABS,ioos:station:wmo:42043:1,2000-04-04T01:30:00Z,28.9818,-94.9186,2.0,198.5100099,38.49127693,-99999.0,'11111222,11111222,99999999' 
TABS,ioos:station:wmo:42043:1,2000-04-04T02:00:00Z,28.9818,-94.9186,2.0,204.4414925,43.2126139,-99999.0,'11111222,11111222,99999999' 
TABS,ioos:station:wmo:42043:1,2000-04-04T02:30:00Z,28.9818,-94.9186,2.0,200.7985826,44.46784231,-99999.0,'11111222,11111222,99999999' 
TABS,ioos:station:wmo:42043:1,2000-04-04T03:00:00Z,28.9818,-94.9186,2.0,204.6427817,37.86899127,-99999.0,'11111222,11111222,99999999' 
TABS,ioos:station:wmo:42043:1,2000-04-04T03:30:00Z,28.9818,-94.9186,2.0,203.8034459,48.36416959,-99999.0,'11111222,11111222,99999999' 
TABS,ioos:station:wmo:42043:1,2000-04-04T04:00:00Z,28.9818,-94.9186,2.0,218.1286075,35.22650423,-99999.0,'11111222,11111222,99999999' 
TABS,ioos:station:wmo:42043:1,2000-04-04T04:30:00Z,28.9818,-94.9186,2.0,221.4830065,32.62369844,-99999.0,'11111222,11111222,99999999' 
TABS,ioos:station:wmo:42043:1,2000-04-04T05:00:00Z,28.9818,-94.9186,2.0,225.2680041,22.64887856,-99999.0,'11111222,11111222,99999999' 
TABS,ioos:station:wmo:42043:1,2000-04-04T05:30:00Z,28.9818,-94.9186,2.0,237.0471351,16.15975557,-99999.0,'11111222,11111222,99999999' 
TABS,ioos:station:wmo:42043:1,2000-04-04T06:00:00Z,28.9818,-94.9186,2.0,253.2276282,9.807191239,-99999.0,'11133222,11111222,99999999' 
TABS,ioos:station:wmo:42043:1,2000-04-04T06:30:00Z,28.9818,-94.9186,2.0,277.7629677,9.920912256,-99999.0,'11133222,11111222,99999999' 
TABS,ioos:station:wmo:42043:1,2000-04-04T07:00:00Z,28.9818,-94.9186,2.0,306.1890745,7.570534988,-99999.0,'11133222,11111222,99999999' 
TABS,ioos:station:wmo:42043:1,2000-04-04T07:30:00Z,28.9818,-94.9186,2.0,302.4640014,5.831234861,-99999.0,'11133222,11111222,99999999' 
TABS,ioos:station:wmo:42043:1,2000-04-04T08:00:00Z,28.9818,-94.9186,2.0,300.4955763,2.936153947,-99999.0,'11133222,11111222,99999999' 
TABS,ioos:station:wmo:42043:1,2000-04-04T08:30:00Z,28.9818,-94.9186,2.0,247.1931369,3.070016287,-99999.0,'11133222,11111222,99999999' 
TABS,ioos:station:wmo:42043:1,2000-04-04T09:00:00Z,28.9818,-94.9186,2.0,298.0861761,2.527647127,-99999.0,'11133222,11111222,99999999' 
TABS,ioos:station:wmo:42043:1,2000-04-04T09:30:00Z,28.9818,-94.9186,2.0,90.0,0.89,-99999.0,'11133222,11111222,99999999' 
TABS,ioos:station:wmo:42043:1,2000-04-04T10:00:00Z,28.9818,-94.9186,2.0,208.0041089,29.19884416,-99999.0,'11111222,11111222,99999999' 
TABS,ioos:station:wmo:42043:1,2000-04-04T10:30:00Z,28.9818,-94.9186,2.0,212.3650894,26.99337882,-99999.0,'11111222,11111222,99999999' 
TABS,ioos:station:wmo:42043:1,2000-04-04T11:00:00Z,28.9818,-94.9186,2.0,194.5538834,48.03129188,-99999.0,'11111222,11111222,99999999' 
TABS,ioos:station:wmo:42043:1,2000-04-04T11:30:00Z,28.9818,-94.9186,2.0,202.0147616,45.32483315,-99999.0,'11111222,11111222,99999999' 
TABS,ioos:station:wmo:42043:1,2000-04-04T12:00:00Z,28.9818,-94.9186,2.0,208.2209874,34.66011685,-99999.0,'11111222,11111222,99999999' 
TABS,ioos:station:wmo:42043:1,2000-04-04T12:30:00Z,28.9818,-94.9186,2.0,214.1403326,25.74720567,-99999.0,'11111222,11111222,99999999' 
TABS,ioos:station:wmo:42043:1,2000-04-04T13:00:00Z,28.9818,-94.9186,2.0,219.1588605,23.83302121,-99999.0,'11111222,11111222,99999999' 
TABS,ioos:station:wmo:42043:1,2000-04-04T13:30:00Z,28.9818,-94.9186,2.0,216.5110829,18.53836293,-99999.0,'11111222,11111222,99999999' 
TABS,ioos:station:wmo:42043:1,2000-04-04T14:00:00Z,28.9818,-94.9186,2.0,208.4555575,16.26506994,-99999.0,'11111222,11111222,99999999' 
TABS,ioos:station:wmo:42043:1,2000-04-04T14:30:00Z,28.9818,-94.9186,2.0,230.4652426,12.17516324,-99999.0,'11111222,11111222,99999999' 
TABS,ioos:station:wmo:42043:1,2000-04-04T15:00:00Z,28.9818,-94.9186,2.0,234.4489892,10.25071705,-99999.0,'11111222,11111222,99999999' 
TABS,ioos:station:wmo:42043:1,2000-04-04T15:30:00Z,28.9818,-94.9186,2.0,226.8600841,16.33570629,-99999.0,'11111222,11111222,99999999' 
TABS,ioos:station:wmo:42043:1,2000-04-04T16:00:00Z,28.9818,-94.9186,2.0,197.2635675,18.56644823,-99999.0,'11111222,11111222,99999999' 